CAPE
0 0 0 0 0 0 0 0 0 0 0 0 11 37 45 140 272 182 512 2381 1872 1572 1520 1279 1047 995 633 601 442 104 21 0 0 0 52 119 15 52 123 172 302 425 469 475 389 275 142 2 0
0 0 0 0 0 0 0 0 0 0 0 0 0 13 5 37 121 737 1994 2109 1721 1483 1395 1178 1015 947 712 588 340 90 25 1 0 0 21 130 96 90 135 277 371 450 502 378 284 162 0 0 0
0 0 0 0 0 0 0 0 0 0 0 0 0 0 0 0 0 34 1138 2318 1645 1401 1339 1116 905 756 571 594 509 204 93 20 0 0 2 35 72 88 266 309 453 623 652 493 260 58 0 0 0
0 0 0 0 0 0 0 0 0 0 0 0 0 0 0 0 0 51 2003 2097 1588 1387 1270 1226 886 683 468 556 561 284 132 58 0 3 0 10 53 130 311 293 418 509 493 365 173 5 0 0 0
0 0 0 0 0 0 0 0 0 0 0 0 0 0 0 0 0 271 2169 2198 1865 1511 1313 1177 867 699 542 572 628 410 168 65 0 10 12 10 16 211 376 466 418 469 353 158 2 0 0 0 0
0 0 0 0 0 0 0 0 0 0 0 0 0 0 0 0 0 150 2314 2375 2189 1798 1380 1203 1118 725 514 645 674 534 295 102 9 15 106 140 134 179 408 416 406 396 226 12 0 0 0 0 0
0 0 0 0 0 0 0 0 0 0 0 0 0 0 0 0 0 446 2237 2527 2349 2034 1635 1329 1183 1014 743 706 696 585 410 207 18 7 26 147 314 236 314 374 398 294 125 1 0 0 0 0 0
0 0 0 0 0 0 0 0 0 0 0 0 0 0 0 0 0 8 2189 2567 2482 2065 1823 1513 1130 896 878 955 736 565 498 362 87 72 150 227 297 250 200 210 331 258 158 18 0 0 0 0 0
0 0 0 0 0 0 0 0 0 0 0 0 0 0 0 0 0 0 364 2432 2397 2139 1795 1568 1288 939 706 787 929 716 577 452 230 268 296 299 288 209 169 81 97 306 186 35 0 0 0 0 0
0 0 0 0 0 0 0 0 0 0 0 0 0 0 0 0 0 0 0 880 2552 2165 2031 1634 1328 966 664 722 944 822 731 572 450 503 512 325 171 151 109 11 27 287 152 12 0 0 0 0 0
0 0 0 0 0 0 0 0 0 0 0 0 0 0 0 0 0 0 0 0 901 1645 1804 1586 1286 830 557 664 750 731 712 421 385 446 500 279 181 176 121 7 55 164 140 0 0 0 0 0 0
0 0 0 0 0 0 0 0 0 0 0 0 0 0 0 0 0 0 0 0 0 1216 1824 1588 1197 920 450 627 384 291 369 270 49 186 419 196 47 0 0 0 0 5 13 0 0 0 0 0 0
0 0 0 0 0 0 0 0 0 0 0 0 0 0 0 0 0 0 0 0 0 132 1447 1646 1456 1058 482 452 486 341 131 127 0 56 319 271 19 0 1 0 0 0 0 0 0 0 0 0 0
0 0 0 0 0 0 0 0 0 0 0 0 0 0 0 0 0 0 0 0 0 0 20 921 1859 1528 920 587 610 308 227 13 0 0 0 135 5 0 11 4 12 7 2 0 0 0 0 0 0
0 0 0 0 0 0 0 0 0 0 0 0 0 0 0 0 0 0 0 0 0 0 8 350 1209 1835 1630 1119 805 565 172 19 0 0 0 0 0 0 5 36 27 21 32 10 0 0 0 0 5
0 0 0 0 0 0 0 0 0 0 0 0 0 0 0 0 0 0 0 0 0 0 0 115 1076 949 1369 1209 1113 667 393 70 1 0 0 0 0 0 0 43 53 93 163 66 6 60 141 119 130
0 0 0 0 0 0 0 0 0 0 0 0 0 0 0 0 0 0 0 0 0 0 0 0 144 158 242 279 762 1357 1062 625 297 12 3 0 0 0 0 38 58 117 82 51 113 168 91 62 216
0 0 0 0 0 0 0 0 0 0 0 0 0 0 0 0 0 0 0 0 0 0 0 0 0 78 128 243 327 992 1212 844 861 635 598 206 50 0 0 111 198 140 56 43 10 4 130 309 424
0 0 0 0 0 0 0 0 0 0 0 0 0 0 0 0 0 0 0 0 0 0 0 0 0 4 114 274 148 511 308 612 473 677 559 295 404 138 99 136 275 175 54 24 73 72 341 329 131
0 0 0 0 0 0 0 0 0 0 0 0 0 0 0 0 0 0 0 0 0 0 0 0 0 0 25 11 22 57 34 190 344 186 288 250 285 300 227 288 254 194 133 63 68 300 455 58 20
0 0 0 0 0 0 0 0 0 0 0 0 0 1 0 0 0 0 0 0 0 0 0 0 0 0 0 0 136 208 249 480 333 232 66 41 94 19 65 174 238 276 188 92 208 575 490 188 0
0 0 0 0 0 0 0 0 0 0 0 0 0 2 0 1 0 0 0 0 0 0 0 0 0 0 2 0 0 0 0 0 0 32 328 167 275 225 85 28 79 313 282 165 462 636 352 67 34
0 0 0 0 0 0 0 0 0 0 0 0 0 0 0 0 0 0 0 0 11 0 4 0 0 3 10 0 0 0 0 0 2 125 180 193 127 309 131 134 155 163 351 212 427 468 144 31 0
0 0 0 0 0 0 0 0 0 0 0 0 0 0 0 0 0 0 0 0 22 1 19 36 9 0 0 0 0 0 0 0 76 339 347 242 319 334 161 217 77 34 32 179 121 33 7 0 0
0 0 0 0 0 0 0 0 0 0 0 0 0 0 0 0 0 0 0 2 37 83 50 36 122 168 104 84 56 37 27 294 303 221 160 279 392 378 257 125 5 0 0 0 0 0 0 0 0
0 0 0 0 0 0 0 0 0 0 0 0 0 0 0 0 0 0 0 0 0 0 7 51 55 144 557 448 516 638 695 588 473 320 205 210 465 536 271 68 37 0 0 0 0 0 0 0 0
0 0 0 0 0 0 0 0 0 0 0 0 0 0 0 0 0 0 0 0 0 0 0 0 5 87 71 77 135 51 420 780 608 500 377 290 448 527 273 33 0 0 3 0 0 0 0 0 0
0 0 0 0 0 0 0 0 0 14 4 8 0 0 0 0 0 0 0 0 0 0 0 0 0 4 58 128 72 124 63 550 896 583 425 371 491 315 59 1 1 4 4 1 0 0 0 0 0
0 0 0 0 4 5 1 0 31 28 23 0 0 0 2 0 0 0 0 0 0 0 0 0 0 0 0 57 112 136 136 358 854 702 407 340 277 76 10 2 4 1 2 0 0 0 0 0 0
0 0 0 4 0 0 0 0 0 108 37 11 11 0 0 0 0 0 0 0 0 0 0 0 0 0 0 0 29 128 260 464 925 587 454 302 77 3 3 3 4 3 1 0 0 0 0 0 0
CIN
0 0 0 0 0 0 0 0 0 0 0 0 -168 -170 -183 -230 -129 -90 -331 -152 -225 -291 -303 -301 -309 -310 -346 -374 -426 -574 -698 -113 0 0 -670 -561 -689 -632 -511 -438 -303 -219 -189 -184 -215 -276 -355 -254 0
0 0 0 0 0 0 0 0 0 0 0 0 0 -179 -136 -270 -310 -300 -197 -216 -257 -320 -337 -335 -324 -329 -350 -387 -453 -568 -650 -604 0 0 -697 -540 -563 -539 -480 -356 -270 -213 -175 -232 -273 -348 0 0 0
0 0 0 0 0 0 0 0 0 0 0 0 0 0 0 0 0 -310 -209 -223 -311 -345 -369 -356 -357 -370 -380 -407 -431 -524 -578 -647 0 0 -196 -650 -585 -551 -385 -343 -240 -138 -108 -164 -281 -443 0 0 0
0 0 0 0 0 0 0 0 0 0 0 0 0 0 0 0 0 -112 -146 -241 -285 -339 -365 -349 -367 -384 -402 -396 -416 -481 -532 -586 0 -681 0 -673 -577 -503 -347 -341 -260 -193 -176 -217 -330 -544 0 0 0
0 0 0 0 0 0 0 0 0 0 0 0 0 0 0 0 0 -89 -109 -174 -210 -332 -358 -347 -368 -387 -403 -392 -386 -428 -493 -559 0 -636 -637 -675 -615 -433 -309 -249 -254 -202 -240 -348 -216 0 0 0 0
0 0 0 0 0 0 0 0 0 0 0 0 0 0 0 0 0 -66 -83 -103 -189 -255 -349 -332 -310 -345 -376 -364 -363 -391 -453 -525 -678 -617 -520 -494 -491 -448 -301 -278 -263 -249 -319 -428 0 0 0 0 0
0 0 0 0 0 0 0 0 0 0 0 0 0 0 0 0 0 -157 -79 -111 -147 -192 -240 -271 -278 -282 -324 -334 -342 -362 -408 -469 -602 -632 -584 -482 -385 -409 -350 -298 -267 -304 -384 -389 0 0 0 0 0
0 0 0 0 0 0 0 0 0 0 0 0 0 0 0 0 0 -127 -66 -85 -102 -135 -164 -182 -239 -284 -295 -276 -306 -343 -356 -397 -515 -522 -471 -431 -386 -390 -405 -392 -299 -317 -365 -526 0 0 0 0 0
0 0 0 0 0 0 0 0 0 0 0 0 0 0 0 0 0 0 -142 -68 -84 -97 -123 -173 -178 -244 -286 -269 -237 -281 -314 -338 -407 -395 -388 -381 -389 -418 -430 -498 -464 -301 -351 -497 0 0 0 0 0
0 0 0 0 0 0 0 0 0 0 0 0 0 0 0 0 0 0 0 -52 -40 -47 -68 -120 -145 -209 -263 -260 -223 -249 -263 -298 -317 -288 -292 -361 -443 -449 -455 -468 -540 -307 -367 -539 0 0 0 0 0
0 0 0 0 0 0 0 0 0 0 0 0 0 0 0 0 0 0 0 0 -29 -36 -56 -81 -118 -200 -248 -241 -239 -249 -257 -321 -324 -286 -273 -358 -396 -400 -426 -447 -478 -384 -368 0 0 0 0 0 0
0 0 0 0 0 0 0 0 0 0 0 0 0 0 0 0 0 0 0 0 0 -57 -43 -54 -99 -125 -213 -206 -260 -301 -307 -345 -422 -378 -281 -367 -458 0 0 0 0 -524 -504 0 0 0 0 0 0
0 0 0 0 0 0 0 0 0 0 0 0 0 0 0 0 0 0 0 0 0 -27 -31 -45 -67 -96 -150 -177 -180 -235 -324 -354 0 -386 -300 -330 -490 0 -225 -62 0 0 0 0 0 0 0 0 0
0 0 0 0 0 0 0 0 0 0 0 0 0 0 0 0 0 0 0 0 0 0 -24 -31 -53 -74 -101 -101 -108 -180 -224 -300 0 0 0 -362 -348 0 -519 -543 -541 -575 -381 0 0 0 0 0 0
0 0 0 0 0 0 0 0 0 0 0 0 0 0 0 0 0 0 0 0 0 0 -2 -45 -42 -61 -55 -68 -72 -96 -180 -229 0 0 0 0 0 0 -516 -447 -454 -437 -417 -443 0 0 0 0 -184
0 0 0 0 0 0 0 0 0 0 0 0 0 0 0 0 0 0 0 0 0 0 0 -37 -43 -47 -63 -62 -56 -69 -97 -166 -97 0 0 0 0 0 0 -379 -366 -248 -203 -267 -382 -269 -191 -182 -176
0 0 0 0 0 0 0 0 0 0 0 0 0 0 0 0 0 0 0 0 0 0 0 0 -68 -52 -61 -58 -66 -50 -35 -32 -92 -73 -105 0 0 0 0 -277 -255 -157 -200 -261 -194 -150 -166 -179 -101
0 0 0 0 0 0 0 0 0 0 0 0 0 0 0 0 0 0 0 0 0 0 0 0 0 -60 -64 -69 -70 -55 -39 -43 -34 -22 -60 -130 -189 0 0 -156 -132 -176 -240 -240 -254 -189 -174 -98 -52
0 0 0 0 0 0 0 0 0 0 0 0 0 0 0 0 0 0 0 0 0 0 0 0 0 -38 -68 -62 -63 -57 -56 -53 -63 -46 -37 -80 -78 -116 -120 -176 -78 -99 -154 -165 -134 -151 -64 -96 -172
0 0 0 0 0 0 0 0 0 0 0 0 0 0 0 0 0 0 0 0 0 0 0 0 0 0 -42 -44 -61 -60 -60 -70 -56 -97 -66 -57 -76 -78 -132 -76 -64 -86 -75 -183 -167 -41 -52 -260 -277
0 0 0 0 0 0 0 0 0 0 0 0 0 -50 0 0 0 0 0 0 0 0 0 0 0 0 0 -3 -78 -65 -77 -70 -55 -76 -110 -114 -89 -72 -141 -96 -55 -57 -65 -110 -61 -25 -30 -87 0
0 0 0 0 0 0 0 0 0 0 0 0 0 -215 0 -11 0 0 0 0 0 0 0 0 0 0 -39 0 0 0 0 0 0 -68 -48 -77 -29 -17 -100 -108 -8 -33 -56 -44 -24 -33 -61 -152 -172
0 0 0 0 0 0 0 0 0 0 0 0 0 0 0 0 0 0 0 0 -156 -9 -155 0 0 -81 -107 0 0 0 0 0 -2 -80 -60 -47 -68 -31 -11 -5 -8 -38 -31 -32 -33 -40 -64 -177 0
0 0 0 0 0 0 0 0 0 0 0 0 0 0 0 0 0 0 0 0 -152 -54 -157 -152 -158 0 0 0 0 0 0 0 -38 -30 -23 -33 -52 -40 -20 -22 -61 -54 -69 -30 -79 -94 -93 0 0
0 0 0 0 0 0 0 0 0 0 0 0 0 0 0 0 0 0 -17 -64 -168 -208 -227 -232 -175 -137 -219 -196 -109 -70 -44 -39 -17 -14 -21 -14 -36 -24 -45 -9 -22 0 0 0 0 0 0 0 0
0 0 0 0 0 0 0 0 0 0 0 0 0 0 0 0 0 0 0 0 0 -16 -218 -231 -217 -139 -104 -87 -80 -74 -33 -21 -23 -14 -27 -24 -22 -17 -33 -54 -76 0 0 0 0 0 0 0 0
0 0 0 0 0 0 0 0 0 0 0 -10 0 0 0 0 0 0 0 0 0 0 0 0 -271 -192 -213 -165 -101 -114 -42 -27 -30 -14 -19 -39 -40 -33 -32 -22 0 0 0 0 0 0 0 0 0
0 0 0 0 0 0 0 0 0 -56 -63 -81 0 0 0 0 0 0 0 0 0 0 0 0 0 -313 -229 -168 -163 -76 -82 -38 -32 -24 -35 -62 -39 -97 -174 0 0 0 0 0 0 0 0 0 0
0 0 0 0 -5 -2 -2 0 -32 -39 -58 -13 0 0 -44 -1 0 0 0 0 0 0 0 0 0 0 0 -243 -167 -99 -76 -66 -28 -33 -88 -101 -75 -167 -80 0 0 0 0 0 0 0 0 0 0
0 0 0 -10 -1 -1 -41 0 0 -54 -34 -36 -76 0 0 0 0 0 0 0 0 0 0 0 0 0 0 0 -245 -165 -60 -51 -34 -71 -115 -124 -176 0 0 0 0 0 0 0 0 0 0 0 0
Wind_Speed
21 22 20 18 18 17 20 16 17 21 20 17 15 10 9 16 15 13 11 12 13 11 14 16 17 15 11 10 10 10 11 12 14 15 15 14 14 13 13 12 11 10 10 10 10 10 11 12 13
21 19 17 18 19 20 21 18 18 22 20 12 14 13 16 14 13 11 10 11 12 13 14 13 14 14 11 10 11 10 11 12 13 13 13 13 13 13 12 11 11 11 10 9 9 10 10 11 13
20 18 18 18 20 22 23 17 27 30 27 22 17 17 18 16 16 13 9 8 11 11 10 10 11 11 9 10 11 10 9 11 11 12 12 12 12 12 11 10 10 10 9 9 9 10 10 11 12
18 17 19 22 26 27 26 31 35 37 34 23 14 16 17 16 18 15 5 5 7 8 8 7 8 7 7 8 9 9 7 8 8 9 9 10 10 11 10 10 9 9 9 9 9 9 9 10 11
15 17 20 21 25 26 28 31 35 35 24 24 21 19 15 16 16 14 6 5 6 6 6 5 5 5 4 5 8 9 7 6 6 6 7 8 8 9 8 8 8 8 8 8 8 8 9 9 10
17 17 21 23 24 25 27 28 25 23 19 17 14 16 19 17 17 17 7 8 8 6 5 3 1 2 2 3 5 7 6 5 4 4 4 5 6 6 6 7 7 7 7 8 8 8 8 9 9
16 18 22 24 25 24 23 27 25 24 22 22 18 19 18 19 19 16 11 10 8 6 6 5 5 4 3 1 1 3 4 4 3 3 4 4 4 4 5 5 5 6 6 6 7 7 7 7 8
16 19 24 22 24 25 27 27 25 24 21 24 19 18 17 20 19 14 14 12 11 10 8 8 7 7 7 6 3 1 1 2 2 1 1 2 3 3 3 3 3 4 4 5 5 5 5 6 6
16 22 24 23 25 29 30 30 29 27 26 23 22 19 23 27 22 17 16 15 14 13 14 12 11 11 9 9 8 6 4 4 1 0 1 1 1 1 1 1 2 3 2 3 3 4 4 4 5
16 21 22 21 27 34 33 31 30 33 36 33 33 33 28 28 25 24 22 17 18 17 15 14 14 13 12 12 11 10 8 7 7 5 3 3 3 3 2 2 2 2 1 0 1 1 3 4 5
19 20 20 24 28 29 33 35 32 35 40 38 40 41 39 32 30 30 30 23 19 20 18 17 16 16 16 17 15 14 12 11 10 10 7 7 5 6 7 6 4 3 2 4 4 2 4 4 6
21 21 23 26 27 31 34 33 36 36 40 38 40 43 41 41 37 33 32 32 27 20 20 21 19 17 18 18 18 18 17 15 15 14 12 11 10 8 8 7 7 6 6 4 3 3 5 7 8
21 25 29 31 32 34 35 40 38 37 37 35 37 37 41 47 43 37 33 33 30 24 24 22 20 19 18 19 19 20 20 20 19 17 15 13 13 12 11 9 8 6 6 5 4 3 6 8 9
21 25 25 25 30 33 36 39 37 38 33 36 36 37 37 39 43 42 39 39 38 32 26 24 22 19 18 19 21 21 23 23 23 23 20 16 15 16 14 12 11 9 7 6 5 5 7 8 10
23 27 28 25 27 28 33 36 35 25 27 35 37 40 41 42 39 39 36 37 37 36 27 25 25 23 22 23 23 24 23 25 26 25 23 20 19 18 17 15 14 10 7 6 8 10 11 10 10
28 27 27 31 27 27 36 48 33 33 34 37 41 42 42 40 36 32 32 32 32 33 31 26 26 28 27 26 27 28 28 26 26 27 25 24 22 21 22 20 18 16 15 13 13 12 9 8 10
25 28 33 35 33 37 34 49 32 32 33 38 42 46 43 42 38 35 34 32 31 30 33 31 28 29 29 29 28 28 29 31 28 29 30 28 25 23 23 25 24 19 18 15 10 10 12 14 15
30 33 32 39 40 39 41 48 43 39 37 37 41 40 46 48 47 45 39 35 35 32 30 31 30 31 31 31 29 30 31 33 35 32 30 30 30 26 25 26 24 21 18 16 15 18 19 17 13
30 36 43 38 32 42 42 42 45 36 31 38 42 42 45 48 44 38 37 40 35 34 31 30 27 31 30 31 32 33 33 33 34 39 36 35 32 29 31 27 25 24 22 19 16 16 15 15 14
34 38 37 32 38 39 39 39 33 30 27 32 36 40 43 45 44 41 33 34 33 33 33 31 29 25 26 30 31 31 32 34 35 36 37 39 38 34 32 37 27 26 23 17 15 15 14 15 12
32 31 35 40 45 34 36 33 32 26 30 29 32 36 32 35 41 41 21 18 27 35 31 26 25 23 23 26 28 30 31 34 35 36 35 36 39 42 30 31 39 29 26 22 19 16 12 14 14
33 26 32 38 43 44 36 46 33 26 35 31 34 32 31 34 31 24 14 21 36 38 21 17 19 20 21 22 27 31 35 39 38 36 35 32 32 34 32 26 43 34 30 23 19 16 16 12 13
27 32 35 39 40 37 33 30 26 27 27 39 36 32 31 30 26 21 17 20 10 4 8 8 11 14 16 19 25 29 32 33 33 32 34 34 32 31 30 26 25 32 31 26 22 20 16 14 12
32 38 41 33 30 30 28 31 30 33 26 30 31 29 30 30 27 28 18 18 18 14 18 12 8 8 11 17 21 26 31 31 32 32 34 35 30 26 23 17 21 20 27 25 21 19 16 13 11
37 40 41 34 34 31 29 38 28 26 23 25 28 28 27 22 23 22 17 18 16 14 13 17 23 30 28 27 27 25 28 28 32 32 33 34 30 27 24 23 19 17 18 14 15 16 14 11 8
36 25 29 35 38 43 33 31 30 20 20 24 26 25 21 23 22 19 16 16 16 14 14 16 18 20 22 24 30 28 25 27 29 31 32 33 32 28 26 23 23 20 19 14 15 13 13 9 7
27 31 26 30 31 36 32 29 20 18 22 27 26 26 22 24 22 20 18 18 17 16 17 18 20 21 21 20 21 25 28 27 30 29 29 32 31 24 22 21 20 12 22 18 12 12 10 9 9
26 29 33 27 34 37 31 31 22 20 26 27 27 28 32 30 29 26 23 21 21 20 20 21 22 22 24 24 24 24 26 27 26 26 28 28 24 18 15 16 12 12 11 11 4 8 6 7 7
32 27 21 25 26 34 37 29 19 23 25 32 33 32 27 34 33 29 28 26 23 23 24 23 24 25 26 28 28 27 27 28 22 23 25 25 20 17 15 13 13 8 9 7 8 5 4 6 6
20 18 24 34 35 32 35 36 29 27 28 35 37 38 36 35 35 34 32 31 30 27 26 25 26 27 29 31 32 31 29 26 21 22 21 17 15 13 11 11 10 11 9 7 5 4 4 4 4
Wind_Direction
280 277 285 287 280 281 272 283 306 300 324 336 349 339 325 310 307 328 45 66 64 65 101 110 112 102 88 81 73 70 70 71 73 74 73 74 74 74 75 74 68 64 64 60 52 45 37 33 32
283 289 294 286 279 275 271 290 297 305 318 355 349 350 321 333 334 354 20 53 69 83 100 108 110 103 89 85 87 83 82 81 80 79 77 77 77 78 79 74 71 69 64 56 48 39 38 34 26
292 298 289 286 277 272 275 298 288 286 292 308 316 324 297 307 313 323 351 67 68 67 87 108 108 99 85 84 89 86 85 86 86 85 83 82 81 82 80 76 72 68 61 57 52 50 46 35 29
304 294 291 282 272 268 276 283 287 282 285 301 323 324 306 300 304 314 15 35 44 55 74 107 105 92 81 82 89 90 83 82 84 86 84 83 85 86 85 82 76 71 68 62 57 52 44 33 34
315 301 288 287 282 279 278 297 294 286 293 297 299 301 311 310 321 328 353 359 13 16 45 83 113 96 77 78 89 96 92 84 83 85 82 85 90 89 86 80 74 67 66 64 57 49 38 35 35
300 302 288 284 284 289 295 308 312 311 314 322 322 304 300 315 322 325 337 321 328 354 7 16 44 101 96 85 92 96 91 88 85 85 78 82 90 94 86 86 82 77 76 73 62 49 39 40 47
310 298 288 291 289 291 305 311 318 311 319 315 314 300 303 305 319 331 328 320 325 343 334 329 318 302 300 292 101 86 91 91 89 95 103 102 103 105 103 93 90 91 89 79 70 55 47 55 61
316 311 294 299 294 294 310 309 315 317 316 306 327 315 313 317 320 331 323 317 310 312 320 307 303 296 287 282 264 255 352 77 95 97 107 116 122 126 118 107 93 100 93 90 84 75 52 55 60
323 302 296 299 297 299 307 305 306 310 309 310 310 318 319 320 310 317 318 309 304 302 299 301 294 292 285 278 274 273 278 294 305 221 163 154 249 175 174 155 137 125 111 100 87 90 54 42 38
315 312 307 305 304 298 299 303 303 300 295 296 295 294 311 317 322 304 310 302 296 296 295 295 291 285 280 278 269 270 275 280 285 286 279 280 264 250 252 225 193 189 180 83 21 73 10 10 16
321 317 316 312 311 311 303 300 305 298 289 291 289 288 292 302 304 302 294 304 301 294 288 286 289 287 281 278 268 267 270 273 275 279 279 282 278 279 279 276 269 266 244 306 319 338 344 354 352
334 329 326 321 320 313 307 305 298 297 293 294 293 287 288 287 291 295 295 290 298 294 285 283 284 283 281 281 269 264 265 267 272 273 273 277 279 277 272 273 273 275 281 281 285 313 327 330 334
339 327 317 313 312 312 313 304 304 300 300 298 295 295 288 281 283 287 291 292 292 291 285 280 279 278 278 277 273 266 265 266 269 270 269 271 273 276 280 279 278 274 276 271 269 274 314 319 330
353 340 336 335 328 325 317 313 310 305 308 302 299 296 293 289 284 284 283 285 285 287 281 278 275 276 275 273 273 270 267 266 269 270 269 266 269 273 277 280 280 285 289 278 282 297 309 314 325
349 336 337 342 344 340 334 321 322 317 310 305 300 297 294 290 290 283 285 286 281 282 277 275 272 273 271 273 273 270 270 268 267 269 269 266 266 268 273 276 280 280 286 279 293 301 305 307 319
341 340 337 337 346 346 333 314 330 328 323 304 299 297 297 289 290 285 284 289 290 278 276 273 273 272 273 277 277 272 269 269 268 267 269 268 266 265 269 274 277 281 287 287 295 297 301 309 317
347 335 332 330 341 337 337 318 337 332 322 310 303 295 292 291 286 281 282 285 287 279 276 274 271 271 272 274 278 275 270 266 270 270 268 270 267 264 266 272 273 276 283 288 280 291 302 304 310
336 332 333 328 333 335 333 323 331 330 322 314 308 300 290 287 285 280 278 279 278 279 275 272 271 271 271 272 275 277 276 271 267 269 273 269 268 266 263 268 271 273 275 277 280 291 295 299 309
336 330 322 332 344 334 334 332 335 340 330 314 308 304 298 290 291 286 281 276 276 272 272 270 273 270 270 270 270 274 275 277 273 267 267 271 267 265 266 265 267 270 270 276 280 289 292 297 303
331 328 328 335 338 338 337 333 337 340 336 328 320 314 303 295 291 287 280 279 276 269 271 268 272 274 269 270 270 274 277 279 277 276 272 266 264 269 264 262 264 265 268 268 271 278 289 296 303
331 330 330 328 329 340 340 339 348 351 346 342 330 313 310 294 291 274 278 262 273 266 267 265 269 271 273 272 272 274 281 280 279 276 278 272 268 268 273 271 262 260 264 266 273 271 274 284 300
329 336 332 331 332 330 345 327 353 355 338 353 324 314 306 307 312 260 200 209 256 261 265 263 267 272 276 275 273 275 277 278 277 277 277 281 278 278 271 269 264 257 259 263 267 273 277 275 284
336 335 332 329 327 329 339 335 350 352 343 324 325 308 308 313 304 291 319 295 322 274 218 237 264 275 281 279 280 279 278 282 281 280 279 279 280 282 282 256 258 260 261 264 267 268 270 281 286
337 329 327 333 334 335 345 345 344 346 348 328 343 332 321 300 295 287 328 318 304 308 276 271 265 268 287 289 288 283 279 282 282 284 283 282 281 279 275 253 258 254 268 265 263 265 271 278 289
336 331 327 329 329 328 340 332 333 348 357 340 336 329 325 330 325 297 339 346 346 335 310 295 285 273 277 283 281 287 286 293 286 287 287 284 280 276 273 261 248 247 254 250 255 261 272 280 292
337 340 332 323 322 321 333 328 334 349 354 329 334 338 321 318 320 316 317 340 352 347 330 320 319 318 303 292 286 292 298 299 298 296 294 290 283 277 271 261 265 260 248 239 251 262 270 282 300
337 329 330 320 319 318 323 325 335 349 347 327 321 311 299 279 297 313 324 328 338 343 340 331 325 321 320 315 305 303 297 298 296 302 303 296 289 281 276 273 258 253 246 243 250 248 256 280 288
329 333 325 327 319 318 323 325 322 334 332 329 316 305 276 295 298 308 312 321 333 333 332 335 332 329 324 315 311 310 308 301 304 309 308 308 295 281 273 268 246 236 239 251 242 234 258 269 313
330 333 336 331 322 317 317 319 341 323 321 314 310 309 309 278 297 294 293 300 315 321 323 326 329 327 323 318 310 311 310 311 310 314 317 316 304 282 272 258 236 210 187 206 214 261 271 299 320
330 337 338 326 320 315 314 306 311 302 317 307 306 295 272 282 276 271 288 288 298 305 319 327 321 320 322 319 309 305 310 314 314 315 320 330 325 294 283 251 220 240 256 186 220 287 293 322 4